Regional Weather Roundup
Issued by NWS Kansas City/Pleasant Hill, MO

Home | Current Version | Previous Version | Text Only | Print | Product List | Glossary On
Versions: 1 2 3 4 5 6 7 8 9 10 11 12 13 14 15 16 17 18 19 20 21 22 23 24 25 26 27 28 29 30 31 32 33 34 35 36 37 38 39 40 41 42 43 44 45 46 47 48 49 50
303
ASUS43 KEAX 240210
RWREAX

WEATHER ROUNDUP FOR EASTERN KANSAS AND NORTHWEST MISSOURI
NATIONAL WEATHER SERVICE KANSAS CITY/PLEASANT HILL MO
800 PM CST MON JAN 23 2017

KSZ040-057-103>105-MOZ028-029-037-043-240300-
...KANSAS CITY METROPOLITAN AREA...

CITY           SKY/WX    TMP DP  RH WIND       PRES   REMARKS
K.C. INTL      CLEAR     33  28  81 SE8       29.83S WCI  26
K.C. DOWNTOWN  CLEAR     37  31  78 E3        29.84S
LEES SUMMIT    CLEAR     35  32  88 E5        29.84S WCI  31
OLATHE - IXD   CLEAR     34  32  92 SE7       29.83R WCI  28
OLATHE - OJC   CLEAR     34  32  92 SE6       29.83R WCI  29
LAWRENCE       CLEAR     32  31  96 E6        29.83R WCI  26

$$

MOZ001>008-011>017-020>025-030>033-038>040-044>046-053-054-240300-
...NORTHERN AND CENTRAL MISSOURI...

CITY           SKY/WX    TMP DP  RH WIND       PRES   REMARKS
ST. JOSEPH     MOCLDY    33  30  88 E6        29.85R WCI  28
MOSBY          CLEAR     34  32  93 E5        29.86R WCI  30
WARRENSBURG    CLEAR     34  32  93 CALM      29.86R
WHITEMAN AFB   CLEAR     34  34 100 E3        29.85S
CLINTON        CLEAR     32  32 100 CALM      29.87R
SEDALIA        PTCLDY    33  30  88 CALM      29.87F
WARSAW         NOT AVBL
CHILLICOTHE      N/A     35  29  78 CALM      29.88R
KIRKSVILLE     CLOUDY    33  29  85 CALM      29.86F

$$

MOZ041-047>049-056>058-063>065-088>090-097-240300-
...EASTERN AND SOUTHERN MISSOURI...

CITY           SKY/WX    TMP DP  RH WIND       PRES   REMARKS
ST. LOUIS INTL CLOUDY    42  33  70 N8        29.86S
SPIRIT OF STL  CLOUDY    42  34  73 NW5       29.85F
COLUMBIA       CLOUDY    36  31  82 W3        29.86R
JEFFERSON CITY PTCLDY    36  30  79 NW6       29.88R WCI  31
ROLLA          CLEAR     33  31  92 CALM      29.83S
OSAGE BEACH    CLEAR     31  29  92 CALM      29.87R
SPRINGFIELD    CLEAR     36  30  79 E5        29.82S WCI  32
BRANSON        CLEAR     39  32  75 CALM      29.84F
JOPLIN         CLEAR     41  32  70 CALM      29.82S
WEST PLAINS    CLEAR     36  30  79 CALM      29.85S

$$

IAZ060-094-KSZ022-034>040-054-083-096-NEZ052-066-093-240300-
...KANSAS...SOUTHEAST NEBRASKA AND IOWA...

CITY           SKY/WX    TMP DP  RH WIND       PRES   REMARKS
TOPEKA         CLEAR     34  30  85 E7        29.82R WCI  28
MANHATTAN      CLEAR     36  33  89 NE5       29.77S WCI  32
EMPORIA        CLEAR     41  34  76 SE12      29.77S WCI  34
CHANUTE        CLEAR     40  34  79 SE6       29.81S
WICHITA        CLEAR     45  32  60 SE12      29.69F
OMAHA          CLOUDY    33  27  78 SE9       29.84R WCI  25
LINCOLN        CLOUDY    33  30  88 E12       29.81S WCI  24
FALLS CITY     CLEAR     31  28  89 E7        29.82S WCI  24
LAMONI         CLOUDY    31  28  89 E5        29.85R WCI  26
DES MOINES     CLOUDY    34  28  79 E3        29.85S

$$





USA.gov is the U.S. government's official web portal to all federal, state and local government web resources and services.